Preview of NWS' New Version of Forecast
This preview is not operational and should not be used for support decisions.

Regional Weather Roundup (RWR)

Issued by National Weather Service (NWS)

                            
000
ASUS45 KABQ 190301
RWRNM 
NEW MEXICO REGIONAL WEATHER ROUNDUP
NATIONAL WEATHER SERVICE ALBUQUERQUE NM
900 PM MDT THU APR 18 2019

NOTE: "FAIR" MEANS FEW OR NO CLOUDS BELOW 12,000 FEET AGL WITH NO
       SIGNIFICANT WEATHER OR OBSTRUCTIONS TO VISION.

      THIS PRODUCT IS RELEASED AS TWO VERSIONS.  ONE VERSION NEAR
      THE TOP OF THE HOUR CONTAINING PRELIMINARY DATA FROM ALBUQUERQUE
      AND OTHER STATIONS.  A FINAL VERSION WITH ADDITIONAL DATA IS 
      ISSUED ABOUT 10 MINUTES AFTER THE HOUR.
 
NMZ501-503-504-510>518-190400-
NORTHWEST PLATEAU/NORTHCENTRAL MOUNTAINS
  
CITY           SKY/WX    TMP DP  RH WIND       PRES   REMARKS
FARMINGTON     FAIR      60  21  22 W7        30.18R                  
LOS ALAMOS       N/A     59  15  18 NE3       30.23R                  
SANTA FE       FAIR      56  20  24 NW3       30.17R                  
TAOS           FAIR      50  13  22 N5        30.25R                  

$$
NMZ402-403-502-505>509-190400-
WESTCENTRAL MOUNTAINS/SOUTHWEST MOUNTAINS
  
CITY           SKY/WX    TMP DP  RH WIND       PRES   REMARKS
GALLUP         FAIR      53  23  31 S5        30.27R                  
GRANTS         FAIR      51  21  31 CALM      30.28R                  
SILVER CITY    FAIR      56  29  35 N3        30.21R                  

$$
NMZ407-409-411-412-190400-
SOUTHERN DESERTS
  
CITY           SKY/WX    TMP DP  RH WIND       PRES   REMARKS
DEMING         FAIR      66  28  24 SW6       30.14R                  
LAS CRUCES     FAIR      65  23  20 W7        30.16R                  
HOLLOMAN AFB   FAIR      64  35  35 E3        30.14R                  
ALAMOGORDO     FAIR      61  36  39 E7        30.13R                  
T OR C         FAIR      70  26  19 S5        30.13R                  

$$
NMZ519>523-190400-
CENTRAL VALLEYS/CENTRAL HIGHLANDS
  
CITY           SKY/WX    TMP DP  RH WIND       PRES   REMARKS
ALBUQUERQUE    FAIR      66  23  19 NW10G20   30.15R                  
DOUBLE EAGLE   CLEAR     61  27  27 NW17      30.18R                  
CLINES CORNERS FAIR      50  29  44 W12       30.22R                  
BELEN          FAIR      61  37  40 CALM      30.16R                  
SOCORRO        FAIR      60  39  46 SW7       30.14R                  

$$
NMZ524>526-539-540-190400-
SOUTHCENTRAL MOUNTAINS
  
CITY           SKY/WX    TMP DP  RH WIND       PRES   REMARKS
RUIDOSO        FAIR      52  21  30 W8        30.24R                  

$$
NMZ527>531-190400-
NORTHEAST HIGHLANDS/NORTHEAST PLAINS
  
CITY           SKY/WX    TMP DP  RH WIND       PRES   REMARKS
LAS VEGAS      FAIR      44  35  70 E12       30.23R                  
RATON          FAIR      44  31  60 VRB5      30.23R                  
CLAYTON        FAIR      45  25  45 NW3       30.19R                  

$$
NMZ532>537-190400-
EASTCENTRAL PLAINS
  
CITY           SKY/WX    TMP DP  RH WIND       PRES   REMARKS
SANTA ROSA     FAIR      60  37  42 NE15      30.12R                  
TUCUMCARI      FAIR      55  37  50 NE10      30.14R                  
CANNON AFB     FAIR      55  37  52 NE16      30.16R                  
CLOVIS AIRPORT FAIR      52  39  61 NE13      30.16R                  

$$
NMZ028-029-538-190400-
SOUTHEAST PLAINS
  
CITY           SKY/WX    TMP DP  RH WIND       PRES   REMARKS
ROSWELL        FAIR      63  39  41 S6        30.05R                  
ARTESIA        FAIR      64  36  34 SE6       30.07R                  
CARLSBAD       FAIR      63  35  35 S6        30.05R                  
HOBBS          FAIR      61  34  36 CALM      30.10R                  


$$